Regional Weather Roundup
Issued by NWS Boston, MA

Current Version | Previous Version | Text Only | Print | Product List | Glossary Off
Versions: 1 2 3 4 5 6 7 8 9 10 11 12 13 14 15 16 17 18 19 20 21 22 23 24 25 26 27

000
ASUS41 KBOX 251710
RWRBOX

REGIONAL WEATHER ROUNDUP
NATIONAL WEATHER SERVICE BOSTON/NORTON MA
100 PM EDT WED APR 25 2018

NOTE:  "FAIR" INDICATES FEW OR NO CLOUDS BELOW 12,000 FEET WITH NO
SIGNIFICANT WEATHER AND/OR OBSTRUCTIONS TO VISIBILITY.

MAZALL-251800-
EASTERN MASSACHUSETTS

CITY           SKY/WX    TMP DP  RH WIND       PRES   REMARKS
BOSTON         LGT RAIN  52  50  93 E14       29.98F
BEVERLY        LGT RAIN  53  50  89 SE17G26   29.99F
LAWRENCE       LGT RAIN  57  52  83 E10       30.00F
BEDFORD        LGT RAIN  57  55  93 E9        29.95F FOG
BLUE HILL        N/A     55  54  96 SE22G31   29.94F
NORWOOD        LGT RAIN  59  56  89 SE12G20   29.95F FOG
MARSHFIELD     FOG       54  52  94 SE12G18   29.98F VSB 1
PLYMOUTH       LGT RAIN  57  55  93 SE14G21   29.98F FOG
TAUNTON        LGT RAIN  56  54  93 SE10      29.95F
NEW BEDFORD    LGT RAIN  54  53  97 SE13      29.95F FOG
$$

MAZALL-251800-
CAPE COD AND THE ISLANDS

CITY           SKY/WX    TMP DP  RH WIND       PRES   REMARKS
FALMOUTH       LGT RAIN  52  52 100 SE18      29.99  FOG
HYANNIS        LGT RAIN  52  50  93 SE12G20   29.98F FOG
CHATHAM        LGT RAIN  52  50  93 SE10G20   30.02F
PROVINCETOWN   CLOUDY    56  51  84 SE20G29   30.01F
NANTUCKET      LGT RAIN  51  51 100 SE21      29.99F FOG
MARTHAS VNYRD  LGT RAIN  52  51  97 SE16G25   29.96F FOG
$$

MAZALL-251800-
CENTRAL AND WESTERN MASSACHUSETTS

CITY           SKY/WX    TMP DP  RH WIND       PRES   REMARKS
WORCESTER      LGT RAIN  53  52  96 SE14G21   29.93F VSB 1/4
FITCHBURG      LGT RAIN  57  55  93 E6        29.96F FOG
ORANGE         CLOUDY    55  53  93 SE8       29.93F
SPRINGFIELD    LGT RAIN  57  56  96 CALM      29.88  FOG
WESTFIELD      LGT RAIN  54  54 100 N6        29.88  FOG
NORTH ADAMS    CLOUDY    55  49  80 E16       29.87F
PITTSFIELD     CLOUDY    54  49  83 VRB3      29.86F
$$

RIZALL-251800-
RHODE ISLAND

CITY           SKY/WX    TMP DP  RH WIND       PRES   REMARKS
PROVIDENCE     RAIN      55  55 100 SE16      29.94F FOG
NEWPORT        LGT RAIN  51  51 100 SE14G23   29.93F FOG
BLOCK ISLAND   LGT RAIN  50  50 100 SE18      29.89F FOG
SMITHFIELD     RAIN      55  54  94 MISG      29.93F FOG
WESTERLY       RAIN      51  51 100 E14G22    29.91F FOG
$$

CTZALL-251800-
CONNECTICUT

CITY           SKY/WX    TMP DP  RH WIND       PRES   REMARKS
BRADLEY INTL   LGT RAIN  58  57  97 SE5       29.87F FOG
HARTFORD       LGT RAIN  58  56  93 VRB6      29.87F FOG
BRIDGEPORT     LGT RAIN  50  49  96 NE15      29.84F FOG
DANBURY        LGT RAIN  56  55  97 E9        29.84F FOG
GROTON         RAIN      51  51 100 E14       29.88F FOG
NEW HAVEN      LGT RAIN  54  52  93 E10       29.85F FOG
CHESTER        LGT RAIN  54  54 100 E8G18     29.87F VSB 1
MERIDEN        LGT RAIN  57  54  89 SE10      29.86F
WILLIMANTIC    LGT RAIN  57  55  93 VRB6      29.90F FOG
OXFORD         LGT RAIN  55  54  96 SE10      29.86F VSB 1
$$

MEZ002-015-021-024-NHZ003-005-008-011-012-014-VTZ005-008-251800-
NORTHERN NEW ENGLAND

CITY           SKY/WX    TMP DP  RH WIND       PRES   REMARKS
PORTLAND ME    LGT RAIN  50  48  93 E10       30.08F
BANGOR ME      CLOUDY    57  45  64 S15       30.12F
CONCORD NH     CLOUDY    56  54  93 VRB7      29.99F
MANCHESTER NH  LGT RAIN  57  53  86 E7        29.97F
NASHUA NH      LGT RAIN  56  55  97 E9        29.97F
PORTSMOUTH NH  LGT RAIN  50  49  96 E12       30.02F FOG
JAFFREY NH     CLOUDY    53  52  96 VRB3      29.95F FOG
KEENE NH       CLOUDY    56  52  86 CALM      29.93F
BURLINGTON VT  LGT RAIN  58  50  75 E9        29.92F
MT. WASHINGTON LGT RAIN  34  34 100 SE60        N/A  VSB 0   WCI  16
$$

NYZ052-076-251800-
EASTERN NEW YORK

CITY           SKY/WX    TMP DP  RH WIND       PRES   REMARKS
ALBANY         LGT RAIN  54  51  90 N3        29.87F FOG
NEW YORK CITY  CLOUDY    61  57  87 SE18G24   29.77F FOG
$$

ANZALL-251800-
MARINE OBSERVATIONS

STATION/POSITION TIME  TEMP    WIND        PRES    VSBY  WAVE
                       AIR SEA DIR/SP/G                  HT/PER
                 (UTC) (F)     (DEG/KT/KT) (MB)    (MI)  (FT/S)
BOSTON BUOY      1650   47 44  110/ 12/ 12 1016.0F         2/ 4
BUZZARDS BAY     1600   49     120/ 23/ 25 1015.0F
NANTUCKET SOUND  1550   50 45  130/ 17/ 21 1016.7          2/ 4
MASS BAY-STELLWA 1604   46 44              1015.9F         2/ 4
ISLE OF SHOALS   1700   47     110/ 14/ 14 1016.3F
S OF BLOCK IS    1643      44                N/A           8/ 8
$$

......................KEY.........................
  SKY/WX - SKY CONDITION/PRESENT WEATHER
  TMP    - TEMPERATURE IN FAHRENHEIT
  DWPT   - DEWPOINT IN FAHRENHEIT
  RH     - RELATIVE HUMIDITY IN PERCENT
  WIND   - DIRECTION AND SPEED IN MPH
  PRES   - MEAN SEA LEVEL PRESSURE IN INCHES OF HG
  WCI    - WIND CHILL INDEX
  VSB    - VISIBILITY IN MILES
  HX     - HEAT INDEX
  TC     - TEMPERATURE IN CELSIUS
  VRB    - VARIABLE WIND DIRECTION
  N/A    - NOT AVAILABLE




USA.gov is the U.S. government's official web portal to all federal, state and local government web resources and services.